Regional Weather Roundup
Issued by NWS Upton, NY

Current Version | Previous Version | Graphics & Text | Print | Product List | Glossary Off
Versions: 1 2 3 4 5 6 7 8 9 10 11 12 13 14 15 16 17 18 19 20 21 22 23 24 25 26 27 28 29 30 31 32 33 34 35 36 37 38 39 40 41 42 43 44 45 46 47 48 49 50
000 ASUS41 KOKX 270405 RWROKX REGIONAL WEATHER ROUNDUP NATIONAL WEATHER SERVICE NEW YORK NY 1100 PM EST WED NOV 26 2014 NOTE: "FAIR" INDICATES FEW OR NO CLOUDS BELOW 12,000 FEET WITH NO SIGNIFICANT WEATHER AND/OR OBSTRUCTIONS TO VISIBILITY. NYZ071-072-176-178-NJZ106-104-270500- NEW YORK CITY METRO AREA CITY SKY/WX TMP DP RH WIND PRES REMARKS CENTRAL PARK CLOUDY 35 32 88 VRB6 29.83R WCI 30 LAGUARDIA APRT FLURRIES 36 32 85 N21G29 29.80S WCI 25 KENNEDY INTL FLURRIES 36 32 85 N18 29.81R WCI 26 NEWARK/LIBERTY CLOUDY 36 33 89 N15G22 29.83R WCI 27 BRNX BOT. GARD N/A 34 32 93 NW5 29.81R WCI 30 TETERBORO FLURRIES 35 32 88 N10 29.82R WCI 27 $$ NYZ177-179-078>081-270500- LONG ISLAND NEW YORK CITY SKY/WX TMP DP RH WIND PRES REMARKS FARMINGDALE MIX PCPN 36 32 85 N16G23 29.77R WCI 26 ISLIP LGT SNOW 36 33 89 N18G29 29.73R FOG WCI 26 SHIRLEY LGT SNOW 37 35 92 N17G28 29.73R FOG WCI 27 WESTHAMPTON LGT RAIN 37 33 85 N16G36 29.71R FOG WCI 28 MONTAUK POINT N/A 38 35 89 N21G35 29.67R WCI 28 $$ NYZ052-065-067-270500- HUDSON VALLEY CITY SKY/WX TMP DP RH WIND PRES REMARKS WHITE PLAINS LGT SNOW 33 30 88 NW21G29 29.78R FOG WCI 21 NEWBURGH NOT AVBL MONTGOMERY FLURRIES 33 31 92 N3 29.85R POUGHKEEPSIE CLOUDY 34 30 85 N9G20 29.84F WCI 27 ALBANY LGT SNOW 31 28 89 N12 29.91S FOG WCI 22 $$ NJZ001-105-106-008-010-013-015-019>022-104-270500- NEW JERSEY CITY SKY/WX TMP DP RH WIND PRES REMARKS NEWARK/LIBERTY CLOUDY 36 33 89 N15G22 29.83R WCI 27 TETERBORO FLURRIES 35 32 88 N10 29.82R WCI 27 CALDWELL FLURRIES 35 30 82 NW5 29.84R WCI 31 MORRISTOWN FLURRIES 37 32 81 N8G16 29.83S WCI 31 SOMERVILLE CLOUDY 36 31 82 NW9 29.84R WCI 29 SUSSEX FLURRIES 34 30 85 CALM 29.85R ANDOVER N/A 33 30 88 N7 29.85R WCI 27 TRENTON CLOUDY 35 31 85 NW9 29.85R WCI 28 MILLVILLE CLOUDY 36 33 89 NW7 29.90R WCI 30 ATLANTIC CITY CLOUDY 37 35 92 NW14 29.88R WCI 28 WRIGHTSTOWN CLOUDY 36 34 93 NW7 29.84R WCI 30 TOMS RIVER CLOUDY 36 34 93 NW3 29.85R BELMAR CLOUDY 36 28 75 NW13 29.82R WCI 27 $$ PAZ047>061-062-071-270500- EASTERN PENNSYLVANIA CITY SKY/WX TMP DP RH WIND PRES REMARKS PHILADELPHIA CLOUDY 37 31 78 NW12 29.90R WCI 29 ALLENTOWN CLOUDY 36 28 73 N5 29.88R WCI 32 SCRANTON FLURRIES 32 27 81 W10 29.90S WCI 24 $$ CTZ002-004>006-009-010-012-RIZ004-006-007-MAZ004-011-015-270500- SOUTHERN NEW ENGLAND IN CT CITY SKY/WX TMP DP RH WIND PRES REMARKS BRADLEY INTL LGT SNOW 35 31 85 N16G24 29.74S FOG WCI 25 HARTFORD LGT SNOW 34 31 88 N13G22 29.75S FOG WCI 25 DANBURY LGT SNOW 33 28 81 N16G25 29.78S WCI 23 WTRBRY/OXFORD CLOUDY 34 27 75 N14G20 29.74F WCI 24 BRIDGEPORT LGT SNOW 35 34 96 NW10 29.77R FOG WCI 27 MERIDEN LGT SNOW 35 31 85 N15G22 29.74F FOG WCI 25 NEW HAVEN LGT RAIN 38 33 82 N15G24 29.73R WCI 29 CHESTER RAIN 34 32 93 N20G26 29.68S WCI 22 GROTON MIX PCPN 35 35 100 N22G29 29.65R FOG WCI 23 WILLIMANTIC LGT SNOW 35 31 85 N9G20 29.71R FOG WCI 28 IN RI CITY SKY/WX TMP DP RH WIND PRES REMARKS PROVIDENCE LGT SNOW 34 31 88 N22G32 29.64S FOG WCI 22 BLOCK ISLAND CLOUDY 37 34 87 N17G30 29.60S WCI 28 WESTERLY LGT RAIN 36 33 89 N17G29 29.64S WCI 26 IN MA CITY SKY/WX TMP DP RH WIND PRES REMARKS BOSTON LGT SNOW 33 31 92 N21G29 29.69F FOG WCI 21 WORCESTER LGT SNOW 30 29 96 N18G31 29.69R FOG WCI 18 WESTFIELD LGT SNOW 33 31 92 N13 29.77S FOG WCI 24 PROVINCETOWN CLOUDY 45 41 87 N28G41 29.58R NANTUCKET LGT RAIN 48 46 93 N23 29.43F FOG $$ ANZ330-335-338-340-345-350-353-355-270500- COASTAL MARINE OBSERVATIONS STATION/POSITION TIME SKY/WX TEMP WIND PRES VSBY WAVE AIR SEA DIR/SP/G HT/PER (UTC) (F) (DEG/KT/KT) (MB) (MI) (FT/S) NY HARB ENTRANCE 0400 40 55 330/ 25/ 29 1008.4 8/10 4S FIRE IS 0400 52 N/A 8/ 9 20S FIRE ISLAND 0400 40 54 340/ 23/ 29 1006.3 12/ 9 23SW MTP 0400 N/A 13/ 8 HUDSON CANYON 0400 44 59 330/ 27/ 37 1004.4 16/10 EXECUTION ROCKS 0400 37 48 320/ 19/ 29 N/A WESTERN LI SOUND 0400 37 340/ 19/ 23 N/A 3/ 5 CENTRAL LI SOUND 0300 37 50 360/ 21/ 25 N/A 3/ 3 EASTERN LI SOUND 0300 39 52 360/ 21/ 29 N/A ROBBINS REEF 0400 36 330/ 13/ 19 1008.6 $$ >>>>>>>>>>>>>>>>>>>>>>>>>>>> KEY <<<<<<<<<<<<<<<<<<<<<<<<<<< > < > SKY/WX - SKY CONDITION/PRESENT WEATHER < > TMP - TEMPERATURE IN FAHRENHEIT < > DP - DEWPOINT IN FAHRENHEIT < > RH - RELATIVE HUMIDITY IN PERCENT < > WIND - DIRECTION AND SPEED IN MPH < > PRES - MEAN SEA LEVEL PRESSURE IN INCHES OF HG < > WCI - WIND CHILL INDEX < > VSB - VISIBILITY IN MILES < > HX - HEAT INDEX < > TC - TEMPERATURE IN CELSIUS < > VRB - VARIABLE WIND DIRECTION < > < >>>>>>>>>>>>>>>>>>>>>>>>>>>> KEY <<<<<<<<<<<<<<<<<<<<<<<<<<<

USA.gov is the U.S. government's official web portal to all federal, state and local government web resources and services.